Track IRIDIUM 42 now! 10-day predictions IRIDIUM 42 is classified as:
1 25077U 97077A 21020.90053158 .00000106 00000-0 30367-4 0 9997 2 25077 86.3987 192.5755 0001779 76.7269 283.4125 14.34626442210520